This is the latest recevied weather packets stored in our database for station/object VK2XSE. If no packets are shown the sender has not sent any weather packets the latest 10 day(s).
| Time | Temp. | Humidity | Pressure | Rain* | Wind** | Luminosity | Snow |
|---|---|---|---|---|---|---|---|
| 1788150618 | 75° F | 33% | 771.2 mmHg | 0 in | - | 560 W/m² | - |
| 1788150018 | 74° F | 33% | 771.3 mmHg | 0 in | - | 577 W/m² | - |
| 1788149418 | 73° F | 33% | 771.3 mmHg | 0 in | - | 595 W/m² | - |
| 1788148818 | 74° F | 32% | 771.4 mmHg | 0 in | - | 613 W/m² | - |
| 1788148218 | 73° F | 33% | 771.5 mmHg | 0 in | - | 631 W/m² | - |
| 1788147618 | 73° F | 34% | 771.7 mmHg | 0 in | - | 642 W/m² | - |
| 1788147018 | 73° F | 35% | 771.7 mmHg | 0 in | - | 653 W/m² | - |
| 1788146418 | 72° F | 38% | 771.8 mmHg | 0 in | - | 666 W/m² | - |
| 1788145818 | 72° F | 39% | 772 mmHg | 0 in | - | 675 W/m² | - |
| 1788145218 | 71° F | 40% | 772 mmHg | 0 in | - | 680 W/m² | - |
| 1788144618 | 71° F | 40% | 772.1 mmHg | 0 in | - | 687 W/m² | - |
| 1788144018 | 70° F | 43% | 772.2 mmHg | 0 in | - | 689 W/m² | - |
| 1788143418 | 70° F | 47% | 772.3 mmHg | 0 in | - | 691 W/m² | - |
| 1788142818 | 70° F | 48% | 772.4 mmHg | 0 in | - | 692 W/m² | - |
| 1788142218 | 69° F | 49% | 772.6 mmHg | 0 in | - | 689 W/m² | - |
| 1788141618 | 68° F | 51% | 772.7 mmHg | 0 in | - | 694 W/m² | - |
| 1788141018 | 68° F | 49% | 772.9 mmHg | 0 in | - | 687 W/m² | - |
| 1788140418 | 69° F | 52% | 772.9 mmHg | 0 in | - | 683 W/m² | - |
| 1788139818 | 68° F | 55% | 773.2 mmHg | 0 in | - | 661 W/m² | - |
| 1788139218 | 67° F | 57% | 773.2 mmHg | 0 in | - | 666 W/m² | - |
| 1788138618 | 67° F | 59% | 773.3 mmHg | 0 in | - | 656 W/m² | - |
| 1788138018 | 66° F | 62% | 773.5 mmHg | 0 in | - | 644 W/m² | - |
| 1788137418 | 65° F | 64% | 773.5 mmHg | 0 in | - | 458 W/m² | - |
| 1788136818 | 64° F | 65% | 773.6 mmHg | 0 in | - | 613 W/m² | - |
| 1788136218 | 63° F | 69% | 773.7 mmHg | 0 in | - | 597 W/m² | - |
* Rain latest hour (hover to see other rain measurements)
** Current wind speed in m/s (hover to see current wind gust speed)